Time,TemperatureF,DewpointF,PressureIn,WindDirection,WindDirectionDegrees,WindSpeedMPH,WindSpeedGustMPH,Humidity,HourlyPrecipIn,Conditions,Clouds,dailyrainin,SoftwareType,DateUTC
2013-04-19 00:01:00,65.0,57.3,29.70,SW,225,0.2,1.8,76,0.00,,,0.00,WUHU216HW,2013-04-19 04:01:00,
2013-04-19 00:06:00,64.8,57.4,29.70,NE,45,0.2,1.8,77,0.00,,,0.00,WUHU216HW,2013-04-19 04:06:00,
2013-04-19 00:11:00,64.8,57.8,29.70,ENE,68,2.9,2.9,78,0.00,,,0.00,WUHU216HW,2013-04-19 04:11:00,
2013-04-19 00:16:00,65.0,57.6,29.69,NW,315,0.4,2.9,77,0.00,,,0.00,WUHU216HW,2013-04-19 04:16:00,
2013-04-19 00:21:00,65.0,57.6,29.69,SW,225,2.9,2.9,77,0.00,,,0.00,WUHU216HW,2013-04-19 04:21:00,
2013-04-19 00:26:00,65.0,57.6,29.68,NNE,23,0.9,2.9,77,0.00,,,0.00,WUHU216HW,2013-04-19 04:26:00,
2013-04-19 00:31:00,65.0,57.6,29.68,WSW,248,1.1,2.9,77,0.00,,,0.00,WUHU216HW,2013-04-19 04:31:00,
2013-04-19 00:36:00,65.0,57.6,29.68,NE,45,0.0,3.1,77,0.00,,,0.00,WUHU216HW,2013-04-19 04:36:00,
2013-04-19 00:41:00,65.0,57.6,29.68,NE,45,2.9,3.1,77,0.00,,,0.00,WUHU216HW,2013-04-19 04:41:00,
2013-04-19 00:46:00,65.0,57.6,29.68,ESE,113,0.4,4.0,77,0.00,,,0.00,WUHU216HW,2013-04-19 04:46:00,
2013-04-19 00:51:00,65.0,57.6,29.68,NNE,23,1.6,4.0,77,0.00,,,0.00,WUHU216HW,2013-04-19 04:51:00,
2013-04-19 00:56:00,65.0,57.6,29.68,SSW,203,0.9,1.6,77,0.00,,,0.00,WUHU216HW,2013-04-19 04:56:00,
2013-04-19 01:01:00,65.0,57.6,29.68,SSW,203,1.1,2.0,77,0.00,,,0.00,WUHU216HW,2013-04-19 05:01:00,
2013-04-19 01:06:00,64.8,57.8,29.68,NE,45,1.8,3.1,78,0.00,,,0.00,WUHU216HW,2013-04-19 05:06:00,
2013-04-19 01:11:00,64.8,57.8,29.68,ENE,68,0.9,3.1,78,0.00,,,0.00,WUHU216HW,2013-04-19 05:11:00,
2013-04-19 01:16:00,64.8,57.8,29.68,SW,225,0.9,2.2,78,0.00,,,0.00,WUHU216HW,2013-04-19 05:16:00,
2013-04-19 01:21:00,64.8,57.8,29.67,SSW,203,0.4,3.4,78,0.00,,,0.00,WUHU216HW,2013-04-19 05:21:00,
2013-04-19 01:26:00,64.8,58.2,29.67,NE,45,0.4,3.4,79,0.00,,,0.00,WUHU216HW,2013-04-19 05:26:00,
2013-04-19 01:31:00,64.6,58.0,29.66,NE,45,0.9,1.8,79,0.00,,,0.00,WUHU216HW,2013-04-19 05:31:00,
2013-04-19 01:36:00,64.8,58.5,29.66,NNE,23,3.6,4.7,80,0.00,,,0.00,WUHU216HW,2013-04-19 05:36:00,
2013-04-19 01:41:00,64.6,58.0,29.67,SW,225,0.7,4.7,79,0.00,,,0.00,WUHU216HW,2013-04-19 05:41:00,
2013-04-19 01:46:00,64.6,58.3,29.66,NNW,338,2.5,4.7,80,0.00,,,0.00,WUHU216HW,2013-04-19 05:46:00,
2013-04-19 01:51:00,64.6,58.0,29.66,NE,45,2.5,2.9,79,0.00,,,0.00,WUHU216HW,2013-04-19 05:51:00,
2013-04-19 01:56:00,64.6,58.0,29.66,NNW,338,0.0,4.9,79,0.00,,,0.00,WUHU216HW,2013-04-19 05:56:00,
2013-04-19 02:01:00,64.6,58.0,29.65,SE,135,0.4,4.9,79,0.00,,,0.00,WUHU216HW,2013-04-19 06:01:00,
2013-04-19 02:06:00,64.6,58.0,29.66,WSW,248,1.1,2.9,79,0.00,,,0.00,WUHU216HW,2013-04-19 06:06:00,
2013-04-19 02:11:00,64.4,58.1,29.65,SW,225,1.1,4.7,80,0.00,,,0.00,WUHU216HW,2013-04-19 06:11:00,
2013-04-19 02:16:00,64.4,58.1,29.65,SW,225,2.5,4.7,80,0.00,,,0.00,WUHU216HW,2013-04-19 06:16:00,
2013-04-19 02:21:00,64.4,58.1,29.65,South,180,1.1,4.0,80,0.00,,,0.00,WUHU216HW,2013-04-19 06:21:00,
2013-04-19 02:26:00,64.4,58.1,29.64,NE,45,0.9,2.5,80,0.00,,,0.00,WUHU216HW,2013-04-19 06:26:00,
2013-04-19 02:31:00,64.3,58.3,29.64,SW,225,0.2,4.0,81,0.00,,,0.00,WUHU216HW,2013-04-19 06:31:00,
2013-04-19 02:36:00,64.1,58.5,29.63,North,0,1.1,4.0,82,0.00,,,0.00,WUHU216HW,2013-04-19 06:36:00,
2013-04-19 02:41:00,64.1,58.2,29.62,ENE,68,2.0,3.4,81,0.00,,,0.00,WUHU216HW,2013-04-19 06:41:00,
2013-04-19 02:46:00,64.1,58.2,29.63,South,180,0.9,3.4,81,0.00,,,0.00,WUHU216HW,2013-04-19 06:46:00,
2013-04-19 02:51:00,64.1,58.2,29.63,SW,225,0.0,3.4,81,0.00,,,0.00,WUHU216HW,2013-04-19 06:51:00,
2013-04-19 02:56:00,64.1,58.2,29.63,SSW,203,0.4,3.1,81,0.00,,,0.00,WUHU216HW,2013-04-19 06:56:00,
2013-04-19 03:01:00,64.1,58.2,29.62,SSW,203,1.3,1.6,81,0.00,,,0.00,WUHU216HW,2013-04-19 07:01:00,
2013-04-19 03:06:00,64.1,58.2,29.62,SW,225,3.1,3.1,81,0.00,,,0.00,WUHU216HW,2013-04-19 07:06:00,
2013-04-19 03:11:00,64.1,58.5,29.61,South,180,2.2,3.1,82,0.00,,,0.00,WUHU216HW,2013-04-19 07:11:00,
2013-04-19 03:16:00,64.1,58.5,29.60,NNE,23,0.2,3.1,82,0.00,,,0.00,WUHU216HW,2013-04-19 07:16:00,
2013-04-19 03:21:00,64.1,58.5,29.60,NNE,23,1.6,4.7,82,0.00,,,0.00,WUHU216HW,2013-04-19 07:21:00,
2013-04-19 03:26:00,63.9,58.3,29.60,NNE,23,0.4,4.7,82,0.00,,,0.00,WUHU216HW,2013-04-19 07:26:00,
2013-04-19 03:31:00,64.1,58.5,29.60,WSW,248,0.4,3.4,82,0.00,,,0.00,WUHU216HW,2013-04-19 07:31:00,
2013-04-19 03:36:00,64.1,58.2,29.61,SW,225,1.6,2.9,81,0.00,,,0.00,WUHU216HW,2013-04-19 07:36:00,
2013-04-19 03:41:00,64.1,58.5,29.60,SSW,203,1.1,3.4,82,0.00,,,0.00,WUHU216HW,2013-04-19 07:41:00,
2013-04-19 03:46:00,64.1,58.5,29.59,SSW,203,1.1,3.4,82,0.00,,,0.00,WUHU216HW,2013-04-19 07:46:00,
2013-04-19 03:51:00,64.1,58.2,29.59,SE,135,0.9,2.5,81,0.00,,,0.00,WUHU216HW,2013-04-19 07:51:00,
2013-04-19 03:56:00,64.1,58.5,29.59,WSW,248,2.7,2.7,82,0.00,,,0.00,WUHU216HW,2013-04-19 07:56:00,
2013-04-19 04:01:00,64.1,58.5,29.59,SW,225,1.1,2.7,82,0.00,,,0.00,WUHU216HW,2013-04-19 08:01:00,
2013-04-19 04:06:00,63.9,58.3,29.59,SSE,158,1.6,2.7,82,0.00,,,0.00,WUHU216HW,2013-04-19 08:06:00,
2013-04-19 04:11:00,63.9,58.3,29.59,SE,135,0.9,2.7,82,0.00,,,0.00,WUHU216HW,2013-04-19 08:11:00,
2013-04-19 04:16:00,63.9,58.3,29.58,NE,45,0.7,2.9,82,0.00,,,0.00,WUHU216HW,2013-04-19 08:16:00,
2013-04-19 04:21:00,63.9,58.3,29.58,North,0,1.1,2.9,82,0.00,,,0.00,WUHU216HW,2013-04-19 08:21:00,
2013-04-19 04:26:00,63.9,58.6,29.57,ENE,68,4.0,4.0,83,0.00,,,0.00,WUHU216HW,2013-04-19 08:26:00,
2013-04-19 04:31:00,63.9,58.3,29.57,SW,225,1.3,4.0,82,0.00,,,0.00,WUHU216HW,2013-04-19 08:31:00,
2013-04-19 04:36:00,63.9,58.3,29.57,SSE,158,1.1,3.8,82,0.00,,,0.00,WUHU216HW,2013-04-19 08:36:00,
2013-04-19 04:41:00,63.9,58.3,29.57,NE,45,1.1,4.9,82,0.00,,,0.00,WUHU216HW,2013-04-19 08:41:00,
2013-04-19 04:46:00,63.9,58.3,29.57,NW,315,1.6,4.9,82,0.00,,,0.00,WUHU216HW,2013-04-19 08:46:00,
2013-04-19 04:51:00,63.9,58.3,29.58,SW,225,3.4,5.6,82,0.00,,,0.00,WUHU216HW,2013-04-19 08:51:00,
2013-04-19 04:56:00,63.9,58.3,29.58,SW,225,1.8,5.6,82,0.00,,,0.00,WUHU216HW,2013-04-19 08:56:00,
2013-04-19 05:01:00,63.9,58.3,29.59,WSW,248,2.5,2.5,82,0.00,,,0.00,WUHU216HW,2013-04-19 09:01:00,
2013-04-19 05:06:00,63.7,58.2,29.59,SW,225,0.2,3.4,82,0.00,,,0.00,WUHU216HW,2013-04-19 09:06:00,
2013-04-19 05:11:00,63.7,57.8,29.58,WSW,248,0.7,3.4,81,0.00,,,0.00,WUHU216HW,2013-04-19 09:11:00,
2013-04-19 05:16:00,63.7,57.8,29.58,West,270,0.2,3.4,81,0.00,,,0.00,WUHU216HW,2013-04-19 09:16:00,
2013-04-19 05:21:00,63.7,57.8,29.59,SW,225,1.3,3.1,81,0.00,,,0.00,WUHU216HW,2013-04-19 09:21:00,
2013-04-19 05:26:00,63.7,57.8,29.59,SW,225,1.3,3.6,81,0.00,,,0.00,WUHU216HW,2013-04-19 09:26:00,
2013-04-19 05:31:00,63.7,57.8,29.59,West,270,0.4,4.5,81,0.00,,,0.00,WUHU216HW,2013-04-19 09:31:00,
2013-04-19 05:36:00,63.7,57.8,29.59,WSW,248,0.4,4.9,81,0.00,,,0.00,WUHU216HW,2013-04-19 09:36:00,
2013-04-19 05:41:00,63.7,57.8,29.59,SW,225,0.9,4.9,81,0.00,,,0.00,WUHU216HW,2013-04-19 09:41:00,
2013-04-19 05:46:00,63.7,57.8,29.60,SSW,203,0.2,5.8,81,0.00,,,0.00,WUHU216HW,2013-04-19 09:46:00,
2013-04-19 05:51:00,63.7,57.8,29.60,SW,225,1.1,5.8,81,0.00,,,0.00,WUHU216HW,2013-04-19 09:51:00,
2013-04-19 05:56:00,63.7,57.8,29.60,SSW,203,0.2,1.1,81,0.00,,,0.00,WUHU216HW,2013-04-19 09:56:00,
2013-04-19 06:01:00,63.7,57.8,29.60,SW,225,0.0,3.4,81,0.00,,,0.00,WUHU216HW,2013-04-19 10:01:00,
2013-04-19 06:06:00,63.7,57.8,29.60,NNE,23,0.4,3.4,81,0.00,,,0.00,WUHU216HW,2013-04-19 10:06:00,
2013-04-19 06:11:00,63.5,57.6,29.59,SSE,158,1.1,2.9,81,0.00,,,0.00,WUHU216HW,2013-04-19 10:11:00,
2013-04-19 06:16:00,63.5,57.6,29.60,SW,225,0.7,2.5,81,0.00,,,0.00,WUHU216HW,2013-04-19 10:16:00,
2013-04-19 06:21:00,63.5,57.6,29.59,West,270,0.2,2.7,81,0.00,,,0.00,WUHU216HW,2013-04-19 10:21:00,
2013-04-19 06:26:00,63.4,57.8,29.59,South,180,1.3,2.7,82,0.00,,,0.00,WUHU216HW,2013-04-19 10:26:00,
2013-04-19 06:31:00,63.4,57.8,29.60,SW,225,0.7,1.8,82,0.00,,,0.00,WUHU216HW,2013-04-19 10:31:00,
2013-04-19 06:36:00,63.2,57.6,29.59,SSW,203,1.1,2.2,82,0.00,,,0.00,WUHU216HW,2013-04-19 10:36:00,
2013-04-19 06:41:00,63.2,57.9,29.59,SSW,203,1.1,2.9,83,0.00,,,0.00,WUHU216HW,2013-04-19 10:41:00,
2013-04-19 06:46:00,63.2,57.9,29.60,SW,225,1.8,3.4,83,0.00,,,0.00,WUHU216HW,2013-04-19 10:46:00,
2013-04-19 06:51:00,63.2,57.9,29.60,SSW,203,1.8,3.4,83,0.00,,,0.00,WUHU216HW,2013-04-19 10:51:00,
2013-04-19 06:56:00,63.0,57.7,29.59,WSW,248,0.4,2.5,83,0.00,,,0.00,WUHU216HW,2013-04-19 10:56:00,
2013-04-19 07:01:00,63.0,57.7,29.59,SW,225,2.2,2.5,83,0.00,,,0.00,WUHU216HW,2013-04-19 11:01:00,
2013-04-19 07:06:00,63.0,57.7,29.60,West,270,0.4,4.3,83,0.00,,,0.00,WUHU216HW,2013-04-19 11:06:00,
2013-04-19 07:11:00,63.0,57.7,29.60,NNE,23,0.4,4.3,83,0.00,,,0.00,WUHU216HW,2013-04-19 11:11:00,
2013-04-19 07:16:00,63.0,57.7,29.60,SSE,158,1.3,1.8,83,0.00,,,0.00,WUHU216HW,2013-04-19 11:16:00,
2013-04-19 07:21:00,63.0,58.1,29.60,SW,225,1.1,2.5,84,0.00,,,0.00,WUHU216HW,2013-04-19 11:21:00,
2013-04-19 07:26:00,62.6,57.7,29.60,SSW,203,2.9,2.9,84,0.00,,,0.00,WUHU216HW,2013-04-19 11:26:00,
2013-04-19 07:31:00,62.6,58.4,29.60,SW,225,2.2,2.9,86,0.00,,,0.00,WUHU216HW,2013-04-19 11:31:00,
2013-04-19 07:36:00,62.5,58.6,29.61,SSW,203,2.5,3.6,87,0.01,,,0.01,WUHU216HW,2013-04-19 11:36:00,
2013-04-19 07:41:00,62.5,58.6,29.60,WNW,293,1.6,3.6,87,0.01,,,0.01,WUHU216HW,2013-04-19 11:41:00,
2013-04-19 07:46:00,62.5,58.6,29.60,NNE,23,0.2,2.5,87,0.01,,,0.01,WUHU216HW,2013-04-19 11:46:00,
2013-04-19 07:51:00,62.3,58.4,29.60,SE,135,0.2,2.9,87,0.01,,,0.01,WUHU216HW,2013-04-19 11:51:00,
2013-04-19 07:56:00,62.5,58.6,29.60,SW,225,2.5,2.9,87,0.01,,,0.01,WUHU216HW,2013-04-19 11:56:00,
2013-04-19 08:01:00,62.5,58.6,29.59,SW,225,2.0,2.7,87,0.01,,,0.01,WUHU216HW,2013-04-19 12:01:00,
2013-04-19 08:06:00,62.3,58.4,29.58,ENE,68,0.4,2.9,87,0.01,,,0.01,WUHU216HW,2013-04-19 12:06:00,
2013-04-19 08:11:00,62.5,58.6,29.58,SW,225,2.5,3.6,87,0.01,,,0.01,WUHU216HW,2013-04-19 12:11:00,
2013-04-19 08:16:00,62.5,58.6,29.58,SSW,203,0.4,3.6,87,0.01,,,0.01,WUHU216HW,2013-04-19 12:16:00,
2013-04-19 08:21:00,62.6,58.8,29.58,North,0,0.4,3.1,87,0.03,,,0.03,WUHU216HW,2013-04-19 12:21:00,
2013-04-19 08:26:00,62.5,59.2,29.59,SW,225,3.6,3.8,89,0.04,,,0.04,WUHU216HW,2013-04-19 12:26:00,
2013-04-19 08:31:00,62.3,59.0,29.59,SW,225,2.5,3.8,89,0.05,,,0.05,WUHU216HW,2013-04-19 12:31:00,
2013-04-19 08:36:00,62.3,59.0,29.59,SW,225,0.7,4.0,89,0.05,,,0.06,WUHU216HW,2013-04-19 12:36:00,
2013-04-19 08:41:00,62.3,59.4,29.59,SW,225,2.2,4.0,90,0.06,,,0.07,WUHU216HW,2013-04-19 12:41:00,
2013-04-19 08:46:00,62.1,58.9,29.59,SW,225,0.4,3.1,89,0.08,,,0.09,WUHU216HW,2013-04-19 12:46:00,
2013-04-19 08:51:00,62.1,58.9,29.58,SW,225,0.7,2.9,89,0.09,,,0.10,WUHU216HW,2013-04-19 12:51:00,
2013-04-19 08:56:00,62.1,59.2,29.59,WSW,248,0.9,1.8,90,0.10,,,0.11,WUHU216HW,2013-04-19 12:56:00,
2013-04-19 09:01:00,62.1,59.2,29.59,WSW,248,1.8,4.0,90,0.11,,,0.12,WUHU216HW,2013-04-19 13:01:00,
2013-04-19 09:06:00,62.1,59.2,29.60,SSW,203,2.2,4.0,90,0.13,,,0.14,WUHU216HW,2013-04-19 13:06:00,
2013-04-19 09:11:00,62.1,59.2,29.60,SSE,158,3.4,4.3,90,0.16,,,0.18,WUHU216HW,2013-04-19 13:11:00,
2013-04-19 09:16:00,62.3,59.4,29.58,ENE,68,1.1,4.7,90,0.17,,,0.20,WUHU216HW,2013-04-19 13:16:00,
2013-04-19 09:21:00,62.3,59.4,29.57,SW,225,0.4,4.7,90,0.18,,,0.23,WUHU216HW,2013-04-19 13:21:00,
2013-04-19 09:26:00,62.3,59.4,29.56,SSW,203,1.3,4.0,90,0.19,,,0.23,WUHU216HW,2013-04-19 13:26:00,
2013-04-19 09:31:00,62.5,59.6,29.57,SW,225,2.0,2.9,90,0.19,,,0.25,WUHU216HW,2013-04-19 13:31:00,
2013-04-19 09:36:00,62.6,59.8,29.57,SW,225,1.8,4.3,90,0.17,,,0.25,WUHU216HW,2013-04-19 13:36:00,
2013-04-19 09:41:00,62.6,59.8,29.57,SW,225,2.9,4.3,90,0.17,,,0.25,WUHU216HW,2013-04-19 13:41:00,
2013-04-19 09:46:00,62.6,59.4,29.57,WSW,248,2.2,3.4,89,0.15,,,0.25,WUHU216HW,2013-04-19 13:46:00,
2013-04-19 09:51:00,62.8,59.6,29.57,WSW,248,1.8,2.9,89,0.14,,,0.25,WUHU216HW,2013-04-19 13:51:00,
2013-04-19 09:56:00,63.0,59.4,29.57,SW,225,0.2,4.0,88,0.13,,,0.25,WUHU216HW,2013-04-19 13:56:00,
2013-04-19 10:01:00,63.0,59.4,29.57,South,180,2.5,4.0,88,0.11,,,0.25,WUHU216HW,2013-04-19 14:01:00,
2013-04-19 10:06:00,63.0,59.1,29.57,WSW,248,1.1,3.4,87,0.10,,,0.25,WUHU216HW,2013-04-19 14:06:00,
2013-04-19 10:11:00,63.2,59.3,29.57,NW,315,0.9,3.4,87,0.07,,,0.25,WUHU216HW,2013-04-19 14:11:00,
2013-04-19 10:16:00,63.4,59.5,29.57,SE,135,0.4,3.1,87,0.03,,,0.25,WUHU216HW,2013-04-19 14:16:00,
2013-04-19 10:21:00,63.4,59.5,29.56,SW,225,2.2,2.9,87,0.02,,,0.25,WUHU216HW,2013-04-19 14:21:00,
2013-04-19 10:26:00,63.5,59.7,29.56,SSW,203,0.0,3.4,87,0.01,,,0.25,WUHU216HW,2013-04-19 14:26:00,
2013-04-19 10:31:00,63.5,59.7,29.56,SW,225,1.1,3.4,87,0.03,,,0.28,WUHU216HW,2013-04-19 14:31:00,
2013-04-19 10:36:00,63.2,59.3,29.55,SSW,203,0.2,1.8,87,0.11,,,0.36,WUHU216HW,2013-04-19 14:36:00,
2013-04-19 10:41:00,63.0,59.4,29.56,WSW,248,0.0,1.8,88,0.13,,,0.38,WUHU216HW,2013-04-19 14:41:00,
2013-04-19 10:46:00,62.8,59.2,29.56,SW,225,0.4,1.3,88,0.17,,,0.41,WUHU216HW,2013-04-19 14:46:00,
2013-04-19 10:51:00,62.6,59.4,29.55,SSW,203,1.3,2.0,89,0.17,,,0.42,WUHU216HW,2013-04-19 14:51:00,
2013-04-19 10:56:00,62.8,59.6,29.55,SSW,203,0.2,2.0,89,0.18,,,0.43,WUHU216HW,2013-04-19 14:56:00,
2013-04-19 11:01:00,62.6,59.4,29.55,South,180,0.4,1.3,89,0.19,,,0.44,WUHU216HW,2013-04-19 15:01:00,
2013-04-19 11:06:00,62.6,59.8,29.55,SW,225,1.1,2.2,90,0.21,,,0.46,WUHU216HW,2013-04-19 15:06:00,
2013-04-19 11:11:00,62.6,59.8,29.54,SW,225,0.4,2.5,90,0.25,,,0.50,WUHU216HW,2013-04-19 15:11:00,
2013-04-19 11:16:00,62.6,59.8,29.54,SW,225,0.7,2.5,90,0.26,,,0.51,WUHU216HW,2013-04-19 15:16:00,
2013-04-19 11:21:00,62.6,59.8,29.54,SSW,203,0.4,1.3,90,0.28,,,0.53,WUHU216HW,2013-04-19 15:21:00,
2013-04-19 11:26:00,62.6,59.8,29.55,SW,225,0.4,2.5,90,0.30,,,0.54,WUHU216HW,2013-04-19 15:26:00,
2013-04-19 11:31:00,62.6,59.8,29.55,South,180,0.4,2.5,90,0.35,,,0.63,WUHU216HW,2013-04-19 15:31:00,
2013-04-19 11:36:00,62.5,59.9,29.55,ENE,68,0.4,0.9,91,0.41,,,0.79,WUHU216HW,2013-04-19 15:36:00,
2013-04-19 11:41:00,62.5,59.6,29.56,SSW,203,0.2,0.7,90,0.51,,,0.90,WUHU216HW,2013-04-19 15:41:00,
2013-04-19 11:46:00,62.5,60.5,29.57,WNW,293,1.3,1.8,93,0.50,,,0.92,WUHU216HW,2013-04-19 15:46:00,
2013-04-19 11:51:00,61.7,59.8,29.58,NNE,23,1.1,6.7,93,0.53,,,0.94,WUHU216HW,2013-04-19 15:51:00,
2013-04-19 11:56:00,61.0,58.7,29.58,SSW,203,3.8,6.7,92,0.53,,,0.95,WUHU216HW,2013-04-19 15:56:00,
2013-04-19 12:01:00,60.1,57.5,29.58,NE,45,4.0,4.0,91,0.52,,,0.95,WUHU216HW,2013-04-19 16:01:00,
2013-04-19 12:06:00,59.2,56.9,29.59,NE,45,0.2,4.0,92,0.50,,,0.97,WUHU216HW,2013-04-19 16:06:00,
2013-04-19 12:11:00,58.9,56.5,29.59,North,0,2.0,4.0,92,0.48,,,0.98,WUHU216HW,2013-04-19 16:11:00,
2013-04-19 12:16:00,58.7,56.3,29.59,NE,45,1.3,3.6,92,0.47,,,0.99,WUHU216HW,2013-04-19 16:16:00,
2013-04-19 12:21:00,58.1,55.8,29.59,NE,45,2.0,4.7,92,0.47,,,1.00,WUHU216HW,2013-04-19 16:21:00,
2013-04-19 12:26:00,58.0,55.6,29.60,NE,45,0.9,4.7,92,0.44,,,1.01,WUHU216HW,2013-04-19 16:26:00,
2013-04-19 12:31:00,57.8,55.4,29.61,SSW,203,0.4,5.4,92,0.39,,,1.02,WUHU216HW,2013-04-19 16:31:00,
2013-04-19 12:36:00,57.6,55.3,29.60,ENE,68,0.7,5.4,92,0.14,,,1.03,WUHU216HW,2013-04-19 16:36:00,
2013-04-19 12:41:00,57.2,55.3,29.60,NE,45,1.1,4.3,93,0.13,,,1.04,WUHU216HW,2013-04-19 16:41:00,
2013-04-19 12:46:00,57.1,55.1,29.60,NW,315,1.6,4.3,93,0.13,,,1.05,WUHU216HW,2013-04-19 16:46:00,
2013-04-19 12:51:00,56.9,54.9,29.60,NE,45,1.6,5.4,93,0.10,,,1.05,WUHU216HW,2013-04-19 16:51:00,
2013-04-19 12:56:00,56.5,54.6,29.60,NNE,23,1.8,5.4,93,0.10,,,1.06,WUHU216HW,2013-04-19 16:56:00,
2013-04-19 13:01:00,56.5,54.6,29.60,NNE,23,0.9,4.7,93,0.09,,,1.06,WUHU216HW,2013-04-19 17:01:00,
2013-04-19 13:06:00,56.3,54.4,29.60,SE,135,0.7,3.4,93,0.09,,,1.07,WUHU216HW,2013-04-19 17:06:00,
2013-04-19 13:11:00,56.5,54.6,29.61,NE,45,2.5,3.4,93,0.11,,,1.09,WUHU216HW,2013-04-19 17:11:00,
2013-04-19 13:16:00,56.2,54.2,29.61,NNE,23,0.4,2.5,93,0.09,,,1.09,WUHU216HW,2013-04-19 17:16:00,
2013-04-19 13:21:00,56.0,54.0,29.60,NE,45,1.6,2.5,93,0.10,,,1.10,WUHU216HW,2013-04-19 17:21:00,
2013-04-19 13:26:00,55.8,53.8,29.60,NE,45,1.1,3.8,93,0.09,,,1.10,WUHU216HW,2013-04-19 17:26:00,
2013-04-19 13:31:00,55.6,53.9,29.60,NE,45,1.8,3.8,94,0.07,,,1.10,WUHU216HW,2013-04-19 17:31:00,
2013-04-19 13:36:00,55.4,53.7,29.61,NE,45,2.7,3.1,94,0.06,,,1.10,WUHU216HW,2013-04-19 17:36:00,
2013-04-19 13:41:00,55.4,53.7,29.60,NE,45,4.0,4.3,94,0.07,,,1.12,WUHU216HW,2013-04-19 17:41:00,
2013-04-19 13:46:00,55.3,53.6,29.60,NE,45,0.9,4.3,94,0.07,,,1.12,WUHU216HW,2013-04-19 17:46:00,
2013-04-19 13:51:00,55.3,53.6,29.60,North,0,0.7,4.0,94,0.09,,,1.14,WUHU216HW,2013-04-19 17:51:00,
2013-04-19 13:56:00,55.3,53.6,29.60,WSW,248,0.7,4.0,94,0.08,,,1.14,WUHU216HW,2013-04-19 17:56:00,
2013-04-19 14:01:00,55.1,53.1,29.60,NNE,23,2.5,4.0,93,0.09,,,1.15,WUHU216HW,2013-04-19 18:01:00,
2013-04-19 14:06:00,54.4,52.4,29.60,NE,45,2.9,3.4,93,0.10,,,1.17,WUHU216HW,2013-04-19 18:06:00,
2013-04-19 14:11:00,54.2,52.5,29.59,NNE,23,0.4,3.4,94,0.08,,,1.17,WUHU216HW,2013-04-19 18:11:00,
2013-04-19 14:16:00,54.0,52.3,29.61,WSW,248,1.8,4.7,94,0.08,,,1.18,WUHU216HW,2013-04-19 18:16:00,
2013-04-19 14:21:00,54.0,52.3,29.61,NNE,23,0.9,4.7,94,0.08,,,1.18,WUHU216HW,2013-04-19 18:21:00,
2013-04-19 14:26:00,53.6,51.9,29.61,West,270,0.2,2.0,94,0.08,,,1.18,WUHU216HW,2013-04-19 18:26:00,
2013-04-19 14:31:00,53.1,51.1,29.61,NNE,23,2.0,5.1,93,0.08,,,1.18,WUHU216HW,2013-04-19 18:31:00,
2013-04-19 14:36:00,52.2,49.9,29.61,NE,45,1.8,6.3,92,0.07,,,1.18,WUHU216HW,2013-04-19 18:36:00,
2013-04-19 14:41:00,51.8,49.9,29.62,NE,45,3.1,6.3,93,0.06,,,1.18,WUHU216HW,2013-04-19 18:41:00,
2013-04-19 14:46:00,51.7,50.0,29.62,NE,45,2.0,4.7,94,0.05,,,1.18,WUHU216HW,2013-04-19 18:46:00,
2013-04-19 14:51:00,51.5,49.8,29.63,NE,45,2.2,3.1,94,0.04,,,1.18,WUHU216HW,2013-04-19 18:51:00,
2013-04-19 14:56:00,51.1,49.2,29.62,NE,45,2.2,4.3,93,0.04,,,1.18,WUHU216HW,2013-04-19 18:56:00,
2013-04-19 15:01:00,50.9,49.2,29.62,WNW,293,1.8,4.3,94,0.02,,,1.18,WUHU216HW,2013-04-19 19:01:00,
2013-04-19 15:06:00,50.8,49.1,29.62,North,0,0.2,7.4,94,0.01,,,1.18,WUHU216HW,2013-04-19 19:06:00,
2013-04-19 15:11:00,50.6,48.9,29.61,NE,45,0.4,7.4,94,0.01,,,1.18,WUHU216HW,2013-04-19 19:11:00,
2013-04-19 15:16:00,50.4,48.7,29.60,NNE,23,2.5,3.8,94,0.00,,,1.18,WUHU216HW,2013-04-19 19:16:00,
2013-04-19 15:21:00,50.2,48.5,29.60,NE,45,4.7,4.7,94,0.00,,,1.18,WUHU216HW,2013-04-19 19:21:00,
2013-04-19 15:26:00,50.0,48.3,29.59,NW,315,1.6,5.1,94,0.00,,,1.18,WUHU216HW,2013-04-19 19:26:00,
2013-04-19 15:31:00,50.0,48.3,29.60,NNW,338,1.1,5.1,94,0.00,,,1.18,WUHU216HW,2013-04-19 19:31:00,
2013-04-19 15:36:00,49.9,48.2,29.60,North,0,1.1,4.3,94,0.00,,,1.18,WUHU216HW,2013-04-19 19:36:00,
2013-04-19 15:41:00,49.7,48.0,29.60,North,0,1.6,4.5,94,0.00,,,1.18,WUHU216HW,2013-04-19 19:41:00,
2013-04-19 15:46:00,49.3,47.6,29.60,North,0,3.1,7.2,94,0.00,,,1.18,WUHU216HW,2013-04-19 19:46:00,
2013-04-19 15:51:00,49.3,47.6,29.59,ENE,68,3.4,7.2,94,0.00,,,1.18,WUHU216HW,2013-04-19 19:51:00,
2013-04-19 15:56:00,49.1,47.4,29.60,NW,315,0.0,7.8,94,0.00,,,1.18,WUHU216HW,2013-04-19 19:56:00,
2013-04-19 16:01:00,49.1,47.4,29.60,NW,315,0.0,7.8,94,0.00,,,1.18,WUHU216HW,2013-04-19 20:01:00,
2013-04-19 16:06:00,49.5,47.8,29.59,NNE,23,0.9,4.3,94,0.00,,,1.18,WUHU216HW,2013-04-19 20:06:00,
2013-04-19 16:11:00,49.7,47.7,29.59,WNW,293,0.7,4.7,93,0.00,,,1.18,WUHU216HW,2013-04-19 20:11:00,
2013-04-19 16:16:00,49.9,47.9,29.60,NNW,338,1.1,4.7,93,0.00,,,1.18,WUHU216HW,2013-04-19 20:16:00,
2013-04-19 16:21:00,49.5,47.3,29.60,NNE,23,1.3,4.9,92,0.00,,,1.18,WUHU216HW,2013-04-19 20:21:00,
2013-04-19 16:26:00,49.5,47.3,29.61,NNW,338,2.0,4.9,92,0.00,,,1.18,WUHU216HW,2013-04-19 20:26:00,
2013-04-19 16:31:00,49.7,47.2,29.60,NNE,23,5.6,5.6,91,0.00,,,1.18,WUHU216HW,2013-04-19 20:31:00,
2013-04-19 16:36:00,50.0,47.4,29.61,North,0,1.3,5.6,91,0.00,,,1.18,WUHU216HW,2013-04-19 20:36:00,
2013-04-19 16:41:00,50.2,47.1,29.62,NNE,23,3.4,6.3,89,0.00,,,1.18,WUHU216HW,2013-04-19 20:41:00,
2013-04-19 16:46:00,50.2,47.3,29.62,North,0,2.9,6.3,90,0.00,,,1.18,WUHU216HW,2013-04-19 20:46:00,
2013-04-19 16:51:00,50.2,46.7,29.62,NE,45,4.3,4.3,88,0.00,,,1.18,WUHU216HW,2013-04-19 20:51:00,
2013-04-19 16:56:00,50.0,46.3,29.61,North,0,3.6,4.7,87,0.00,,,1.18,WUHU216HW,2013-04-19 20:56:00,
2013-04-19 17:01:00,49.7,45.6,29.61,NNW,338,1.3,4.7,86,0.00,,,1.18,WUHU216HW,2013-04-19 21:01:00,
2013-04-19 17:06:00,49.9,46.1,29.61,North,0,1.8,4.7,87,0.00,,,1.18,WUHU216HW,2013-04-19 21:06:00,
2013-04-19 17:11:00,50.0,45.9,29.62,NNE,23,2.5,3.6,86,0.00,,,1.18,WUHU216HW,2013-04-19 21:11:00,
2013-04-19 17:16:00,49.7,45.0,29.62,NNW,338,4.3,6.0,84,0.00,,,1.18,WUHU216HW,2013-04-19 21:16:00,
2013-04-19 17:21:00,49.7,45.3,29.62,North,0,3.6,6.0,85,0.00,,,1.18,WUHU216HW,2013-04-19 21:21:00,
2013-04-19 17:26:00,49.7,45.0,29.62,NW,315,0.9,4.9,84,0.00,,,1.18,WUHU216HW,2013-04-19 21:26:00,
2013-04-19 17:31:00,49.5,44.2,29.63,NNW,338,0.7,4.0,82,0.00,,,1.18,WUHU216HW,2013-04-19 21:31:00,
2013-04-19 17:36:00,49.5,43.8,29.62,South,180,0.7,3.4,81,0.00,,,1.18,WUHU216HW,2013-04-19 21:36:00,
2013-04-19 17:41:00,49.3,43.7,29.62,NNE,23,3.4,3.4,81,0.00,,,1.18,WUHU216HW,2013-04-19 21:41:00,
2013-04-19 17:46:00,49.3,43.0,29.61,NNE,23,2.0,4.9,79,0.00,,,1.18,WUHU216HW,2013-04-19 21:46:00,
2013-04-19 17:51:00,49.3,43.7,29.61,NNE,23,1.1,8.5,81,0.00,,,1.18,WUHU216HW,2013-04-19 21:51:00,
2013-04-19 17:56:00,49.1,42.8,29.60,NNE,23,0.7,8.5,79,0.00,,,1.18,WUHU216HW,2013-04-19 21:56:00,
2013-04-19 18:01:00,49.3,43.4,29.59,ENE,68,0.9,6.9,80,0.00,,,1.18,WUHU216HW,2013-04-19 22:01:00,
2013-04-19 18:06:00,49.3,43.7,29.59,North,0,0.4,4.0,81,0.00,,,1.18,WUHU216HW,2013-04-19 22:06:00,
2013-04-19 18:11:00,49.1,42.5,29.60,NNE,23,2.0,6.0,78,0.00,,,1.18,WUHU216HW,2013-04-19 22:11:00,
2013-04-19 18:16:00,49.1,42.5,29.60,NW,315,1.8,6.0,78,0.00,,,1.18,WUHU216HW,2013-04-19 22:16:00,
2013-04-19 18:21:00,49.0,42.7,29.60,NE,45,0.9,3.1,79,0.00,,,1.18,WUHU216HW,2013-04-19 22:21:00,
2013-04-19 18:26:00,48.6,42.3,29.60,NNE,23,4.3,6.3,79,0.00,,,1.18,WUHU216HW,2013-04-19 22:26:00,
2013-04-19 18:31:00,48.6,42.7,29.60,NE,45,2.5,6.3,80,0.00,,,1.18,WUHU216HW,2013-04-19 22:31:00,
2013-04-19 18:36:00,48.6,42.7,29.61,North,0,4.3,5.1,80,0.00,,,1.18,WUHU216HW,2013-04-19 22:36:00,
2013-04-19 18:41:00,48.4,42.1,29.61,NE,45,3.4,5.1,79,0.00,,,1.18,WUHU216HW,2013-04-19 22:41:00,
2013-04-19 18:46:00,48.2,41.3,29.60,NE,45,1.6,6.3,77,0.00,,,1.18,WUHU216HW,2013-04-19 22:46:00,
2013-04-19 18:51:00,48.2,41.3,29.61,North,0,2.5,6.3,77,0.00,,,1.18,WUHU216HW,2013-04-19 22:51:00,
2013-04-19 18:56:00,48.2,41.6,29.61,NNE,23,0.7,4.7,78,0.00,,,1.18,WUHU216HW,2013-04-19 22:56:00,
2013-04-19 19:01:00,48.1,41.5,29.61,NNE,23,5.6,6.0,78,0.00,,,1.18,WUHU216HW,2013-04-19 23:01:00,
2013-04-19 19:06:00,47.9,41.7,29.61,North,0,3.6,8.1,79,0.00,,,1.18,WUHU216HW,2013-04-19 23:06:00,
2013-04-19 19:11:00,47.9,41.7,29.62,NNE,23,1.8,8.1,79,0.00,,,1.18,WUHU216HW,2013-04-19 23:11:00,
2013-04-19 19:16:00,48.2,41.6,29.62,North,0,2.0,4.5,78,0.00,,,1.18,WUHU216HW,2013-04-19 23:16:00,
2013-04-19 19:21:00,48.6,41.3,29.62,WNW,293,1.6,4.5,76,0.00,,,1.18,WUHU216HW,2013-04-19 23:21:00,
2013-04-19 19:26:00,48.4,40.1,29.62,NNE,23,4.9,5.6,73,0.00,,,1.18,WUHU216HW,2013-04-19 23:26:00,
2013-04-19 19:31:00,47.9,40.6,29.61,NNE,23,4.0,7.6,76,0.00,,,1.18,WUHU216HW,2013-04-19 23:31:00,
2013-04-19 19:36:00,47.5,40.3,29.62,North,0,4.0,7.6,76,0.00,,,1.18,WUHU216HW,2013-04-19 23:36:00,
2013-04-19 19:41:00,47.2,40.3,29.62,NNE,23,5.4,7.6,77,0.00,,,1.18,WUHU216HW,2013-04-19 23:41:00,
2013-04-19 19:46:00,46.8,40.0,29.62,NNE,23,1.8,7.2,77,0.00,,,1.18,WUHU216HW,2013-04-19 23:46:00,
2013-04-19 19:51:00,46.8,40.3,29.62,North,0,5.8,7.2,78,0.00,,,1.18,WUHU216HW,2013-04-19 23:51:00,
2013-04-19 19:56:00,46.4,40.3,29.62,NNE,23,5.4,7.4,79,0.00,,,1.18,WUHU216HW,2013-04-19 23:56:00,
2013-04-19 20:01:00,46.3,39.8,29.63,NNE,23,1.8,7.4,78,0.00,,,1.18,WUHU216HW,2013-04-20 00:01:00,
2013-04-19 20:06:00,45.9,39.4,29.63,NE,45,4.0,8.7,78,0.00,,,1.18,WUHU216HW,2013-04-20 00:06:00,
2013-04-19 20:11:00,45.7,40.0,29.63,NNE,23,4.9,8.7,80,0.00,,,1.18,WUHU216HW,2013-04-20 00:11:00,
2013-04-19 20:16:00,45.4,38.9,29.63,NNE,23,9.2,9.2,78,0.00,,,1.18,WUHU216HW,2013-04-20 00:16:00,
2013-04-19 20:21:00,45.0,38.9,29.64,North,0,7.8,9.8,79,0.00,,,1.18,WUHU216HW,2013-04-20 00:21:00,
2013-04-19 20:26:00,44.8,38.7,29.64,NNE,23,1.1,9.8,79,0.00,,,1.18,WUHU216HW,2013-04-20 00:26:00,
2013-04-19 20:31:00,44.5,38.3,29.64,NNE,23,6.3,7.8,79,0.00,,,1.18,WUHU216HW,2013-04-20 00:31:00,
2013-04-19 20:36:00,44.3,38.2,29.65,NNE,23,1.8,6.9,79,0.00,,,1.18,WUHU216HW,2013-04-20 00:36:00,
2013-04-19 20:41:00,44.1,38.0,29.65,NNE,23,6.3,6.9,79,0.00,,,1.18,WUHU216HW,2013-04-20 00:41:00,
2013-04-19 20:46:00,44.1,38.3,29.65,NNE,23,2.7,8.1,80,0.00,,,1.18,WUHU216HW,2013-04-20 00:46:00,
2013-04-19 20:51:00,43.9,38.2,29.65,NNE,23,0.4,8.1,80,0.00,,,1.18,WUHU216HW,2013-04-20 00:51:00,
2013-04-19 20:56:00,43.6,37.4,29.65,North,0,9.6,9.6,79,0.00,,,1.18,WUHU216HW,2013-04-20 00:56:00,
2013-04-19 21:01:00,43.6,37.4,29.65,NNE,23,3.4,10.7,79,0.00,,,1.18,WUHU216HW,2013-04-20 01:01:00,
2013-04-19 21:06:00,43.6,36.8,29.65,ENE,68,4.3,10.7,77,0.00,,,1.18,WUHU216HW,2013-04-20 01:06:00,
2013-04-19 21:11:00,43.6,36.8,29.66,NNE,23,1.8,8.9,77,0.00,,,1.18,WUHU216HW,2013-04-20 01:11:00,
2013-04-19 21:16:00,43.4,36.6,29.66,West,270,3.1,8.9,77,0.00,,,1.18,WUHU216HW,2013-04-20 01:16:00,
2013-04-19 21:21:00,43.4,37.0,29.66,NNE,23,7.6,7.8,78,0.00,,,1.18,WUHU216HW,2013-04-20 01:21:00,
2013-04-19 21:26:00,43.2,36.8,29.67,NNE,23,3.4,7.8,78,0.00,,,1.18,WUHU216HW,2013-04-20 01:26:00,
2013-04-19 21:31:00,43.0,36.6,29.67,NE,45,7.8,7.8,78,0.00,,,1.18,WUHU216HW,2013-04-20 01:31:00,
2013-04-19 21:36:00,43.0,36.3,29.67,North,0,1.3,8.5,77,0.00,,,1.18,WUHU216HW,2013-04-20 01:36:00,
2013-04-19 21:41:00,43.0,36.3,29.67,North,0,4.0,8.5,77,0.00,,,1.18,WUHU216HW,2013-04-20 01:41:00,
2013-04-19 21:46:00,43.0,36.0,29.68,North,0,3.6,9.2,76,0.00,,,1.18,WUHU216HW,2013-04-20 01:46:00,
2013-04-19 21:51:00,43.0,36.3,29.68,NE,45,2.5,9.2,77,0.00,,,1.18,WUHU216HW,2013-04-20 01:51:00,
2013-04-19 21:56:00,42.8,36.5,29.68,NNE,23,3.1,7.2,78,0.00,,,1.18,WUHU216HW,2013-04-20 01:56:00,
2013-04-19 22:01:00,42.8,36.5,29.69,NNE,23,3.4,8.9,78,0.00,,,1.18,WUHU216HW,2013-04-20 02:01:00,
2013-04-19 22:06:00,42.8,36.7,29.69,NNE,23,7.4,8.9,79,0.00,,,1.18,WUHU216HW,2013-04-20 02:06:00,
2013-04-19 22:11:00,42.8,36.7,29.70,NNE,23,1.6,7.4,79,0.00,,,1.18,WUHU216HW,2013-04-20 02:11:00,
2013-04-19 22:16:00,42.7,37.2,29.70,NNE,23,7.4,7.8,81,0.00,,,1.18,WUHU216HW,2013-04-20 02:16:00,
2013-04-19 22:21:00,42.5,37.0,29.70,NNE,23,8.1,8.1,81,0.00,,,1.18,WUHU216HW,2013-04-20 02:21:00,
2013-04-19 22:26:00,42.5,36.4,29.70,North,0,3.4,8.1,79,0.00,,,1.18,WUHU216HW,2013-04-20 02:26:00,
2013-04-19 22:31:00,42.1,35.7,29.70,NNW,338,6.7,8.1,78,0.00,,,1.18,WUHU216HW,2013-04-20 02:31:00,
2013-04-19 22:36:00,42.1,35.4,29.71,NNE,23,2.5,7.4,77,0.00,,,1.18,WUHU216HW,2013-04-20 02:36:00,
2013-04-19 22:41:00,41.8,34.8,29.71,NNW,338,2.5,7.4,76,0.00,,,1.18,WUHU216HW,2013-04-20 02:41:00,
2013-04-19 22:46:00,41.6,34.6,29.71,NNW,338,3.1,7.6,76,0.00,,,1.18,WUHU216HW,2013-04-20 02:46:00,
2013-04-19 22:51:00,41.4,34.0,29.71,North,0,3.4,7.6,75,0.00,,,1.18,WUHU216HW,2013-04-20 02:51:00,
2013-04-19 22:56:00,41.4,33.7,29.71,SW,225,3.4,7.6,74,0.00,,,1.18,WUHU216HW,2013-04-20 02:56:00,
2013-04-19 23:01:00,41.2,33.8,29.71,WSW,248,0.9,7.6,75,0.00,,,1.18,WUHU216HW,2013-04-20 03:01:00,
2013-04-19 23:06:00,41.0,33.7,29.71,NE,45,1.1,9.2,75,0.00,,,1.18,WUHU216HW,2013-04-20 03:06:00,
2013-04-19 23:11:00,40.9,33.1,29.71,NNW,338,4.9,9.2,74,0.00,,,1.18,WUHU216HW,2013-04-20 03:11:00,
2013-04-19 23:16:00,40.9,32.9,29.71,NNE,23,2.7,8.5,73,0.00,,,1.18,WUHU216HW,2013-04-20 03:16:00,
2013-04-19 23:21:00,40.7,32.7,29.71,NNW,338,4.3,8.5,73,0.00,,,1.18,WUHU216HW,2013-04-20 03:21:00,
2013-04-19 23:26:00,40.7,33.0,29.72,NNE,23,2.9,7.2,74,0.00,,,1.18,WUHU216HW,2013-04-20 03:26:00,
2013-04-19 23:31:00,40.7,32.7,29.72,North,0,3.8,7.2,73,0.00,,,1.18,WUHU216HW,2013-04-20 03:31:00,
2013-04-19 23:36:00,40.7,33.0,29.72,North,0,3.6,9.6,74,0.00,,,1.18,WUHU216HW,2013-04-20 03:36:00,
2013-04-19 23:41:00,40.5,32.9,29.72,NNW,338,1.8,9.6,74,0.00,,,1.18,WUHU216HW,2013-04-20 03:41:00,
2013-04-19 23:46:00,40.3,32.7,29.72,North,0,4.7,9.4,74,0.00,,,1.18,WUHU216HW,2013-04-20 03:46:00,
2013-04-19 23:51:00,40.3,32.9,29.73,NNW,338,1.8,6.0,75,0.00,,,1.18,WUHU216HW,2013-04-20 03:51:00,
2013-04-19 23:56:00,40.0,32.7,29.73,NNE,23,4.3,6.9,75,0.00,,,1.18,WUHU216HW,2013-04-20 03:56:00,